This is the latest recevied weather packets stored in our database for station/object WX2P-13. If no packets are shown the sender has not sent any weather packets the latest 1 day(s).
| Time | Temp. | Humidity | Pressure | Rain* | Wind** | Luminosity | Snow |
|---|---|---|---|---|---|---|---|
| 1778017896 | 28.33° C | 61% | 1015 hPa | 0 mm | 0.89 m/s, 265° | 69 W/m² | - |
| 1778017594 | 28.33° C | 60% | 1015.3 hPa | 0 mm | 0.89 m/s, 322° | 68 W/m² | - |
| 1778017291 | 28.33° C | 59% | 1015.3 hPa | 0 mm | 0.89 m/s, 284° | 67 W/m² | - |
| 1778016989 | 28.89° C | 60% | 1015 hPa | 0 mm | 1.34 m/s, 278° | 83 W/m² | - |
| 1778016685 | 28.33° C | 60% | 1014.9 hPa | 0 mm | 0.45 m/s, 232° | 118 W/m² | - |
| 1778016381 | 28.33° C | 59% | 1015.1 hPa | 0 mm | 1.34 m/s, 284° | 91 W/m² | - |
| 1778016079 | 28.89° C | 59% | 1015.1 hPa | 0 mm | 1.34 m/s, 256° | 72 W/m² | - |
| 1778015775 | 28.89° C | 59% | 1015.2 hPa | 0 mm | 0.89 m/s, 175° | 156 W/m² | - |
| 1778015473 | 28.89° C | 58% | 1014.9 hPa | 0 mm | 0.89 m/s, 229° | 133 W/m² | - |
| 1778015169 | 29.44° C | 58% | 1014.9 hPa | 0 mm | 0.45 m/s, 245° | 65 W/m² | - |
| 1778014866 | 29.44° C | 57% | 1014.8 hPa | 0 mm | 1.34 m/s, 244° | 79 W/m² | - |
| 1778014564 | 28.89° C | 58% | 1014.9 hPa | 0 mm | 1.34 m/s, 220° | 88 W/m² | - |
| 1778014262 | 28.89° C | 57% | 1014.8 hPa | 0 mm | 1.34 m/s, 249° | 78 W/m² | - |
| 1778013958 | 28.89° C | 57% | 1014.9 hPa | 0 mm | 1.34 m/s, 266° | 81 W/m² | - |
| 1778013656 | 28.89° C | 57% | 1014.8 hPa | 0 mm | 0.45 m/s, 272° | 97 W/m² | - |
| 1778013352 | 28.89° C | 57% | 1014.7 hPa | 0 mm | 0.45 m/s, 170° | 111 W/m² | - |
| 1778013050 | 29.44° C | 57% | 1015.1 hPa | 0 mm | 0.89 m/s, 264° | 281 W/m² | - |
| 1778012745 | 29.44° C | 56% | 1014.9 hPa | 0 mm | 2.24 m/s, 247° | 116 W/m² | - |
| 1778012441 | 28.89° C | 59% | 1015 hPa | 0 mm | 0.89 m/s, 184° | 172 W/m² | - |
| 1778012138 | 28.89° C | 57% | 1015 hPa | 0 mm | 0.89 m/s, 273° | 156 W/m² | - |
| 1778011836 | 28.89° C | 57% | 1015 hPa | 0 mm | 1.34 m/s, 303° | 121 W/m² | - |
| 1778011534 | 30° C | 56% | 1015.2 hPa | 0 mm | 0.45 m/s, 179° | 121 W/m² | - |
| 1778011230 | 29.44° C | 59% | 1015.1 hPa | 0 mm | 0.45 m/s, 222° | 139 W/m² | - |
| 1778010926 | 28.89° C | 59% | 1015.2 hPa | 0 mm | 0.45 m/s, 47° | 152 W/m² | - |
| 1778010624 | 29.44° C | 58% | 1015.4 hPa | 0 mm | 1.34 m/s, 321° | 147 W/m² | - |
* Rain latest hour (hover to see other rain measurements)
** Current wind speed in m/s (hover to see current wind gust speed)